Weather History for Kansas City International, MO

Change the Weather History Date:

Tuesday, April 2, 2013

  Actual Average Record
Temperature  
Mean Temperature 39 °F 50 °F  
Max Temperature 51 °F 62 °F 87 °F (1889)
Min Temperature 27 °F 39 °F 19 °F (1975)
Degree Days  
Heating Degree Days 26 15  
Month to date heating degree days 54 30  
Since 1 July heating degree days 4622 4721  
Cooling Degree Days 0 0  
Month to date cooling degree days 0 0  
Year to date cooling degree days 0 3  
Moisture  
Dew Point 18 °F    
Average Humidity 46    
Maximum Humidity 63    
Minimum Humidity 28    
Precipitation  
Precipitation 0.00 in 0.09 in 1.45 in (1925)
Month to date precipitation T 0.19  
Year to date precipitation 4.84 5.09  
Snow  
Snow 0.00 in 0.00 in 3.10 in (1926)
Month to date snowfall 0.0 0.1  
Since 1 July snowfall 31.2 18.3  
Snow Depth 0.00 in    
Sea Level Pressure  
Sea Level Pressure 30.31 in    
Wind  
Wind Speed 6 mph (ENE)    
Max Wind Speed 13 mph    
Max Gust Speed 15 mph    
Visibility 10 miles    
Events      
T = Trace of Precipitation, MM = Missing Value Source: NWS Daily Summary

Daily Weather History Graph

Daily Weather History Graph

Search for Another Location

Airport:

Trip Planner

Search our weather history database for the weather conditions in past years. The results will help you decide how hot, cold, wet, or windy it might be!

Date:

Astronomy

Apr. 02, 2013 Rise Set
Actual Time 7:01 AM CDT 7:44 PM CDT
Civil Twilight 6:34 AM CDT 8:11 PM CDT
Nautical Twilight 6:02 AM CDT 8:43 PM CDT
Astronomical Twilight 5:29 AM CDT 9:16 PM CDT
Moon 1:48 AM CDT (4/2) 11:54 AM CDT (4/2)
Length of Visible Light 13h 36m
Length of Day
12h 42m
Waning Gibbous, 55% of the Moon is Illuminated
Apr 2
Waning Gibbous
Apr 2
Last Quarter
Apr 10
New
Apr 18
First Quarter
Apr 25
Full

Hourly Weather History & Observations

Time (CDT) Temp. Windchill Dew Point Humidity Pressure Visibility Wind Dir Wind Speed Gust Speed Precip Events Conditions
12:53 AM 28.9 °F 21.9 °F 16.0 °F 58% 30.31 in 10.0 mi North 6.9 mph - N/A   Clear
1:53 AM 28.0 °F 20.8 °F 17.1 °F 63% 30.31 in 10.0 mi NNE 6.9 mph - N/A   Clear
2:53 AM 28.9 °F 21.1 °F 17.1 °F 61% 30.30 in 10.0 mi ENE 8.1 mph - N/A   Clear
3:53 AM 28.0 °F 21.7 °F 17.1 °F 63% 30.30 in 10.0 mi NE 5.8 mph - N/A   Clear
4:53 AM 28.9 °F 23.9 °F 17.1 °F 61% 30.31 in 10.0 mi ENE 4.6 mph - N/A   Clear
5:53 AM 28.9 °F 21.9 °F 16.0 °F 58% 30.32 in 10.0 mi East 6.9 mph - N/A   Clear
6:53 AM 28.9 °F 21.9 °F 16.0 °F 58% 30.34 in 10.0 mi East 6.9 mph - N/A   Partly Cloudy
7:53 AM 30.0 °F 23.2 °F 17.1 °F 59% 30.35 in 10.0 mi ESE 6.9 mph - N/A   Mostly Cloudy
8:53 AM 32.0 °F 25.6 °F 19.0 °F 59% 30.37 in 10.0 mi ESE 6.9 mph - N/A   Mostly Cloudy
9:53 AM 37.0 °F 32.4 °F 18.0 °F 46% 30.37 in 10.0 mi East 5.8 mph - N/A   Mostly Cloudy
10:53 AM 39.9 °F 35.8 °F 18.0 °F 41% 30.36 in 10.0 mi NE 5.8 mph - N/A   Mostly Cloudy
11:53 AM 43.0 °F 38.2 °F 16.0 °F 34% 30.35 in 10.0 mi ENE 8.1 mph - N/A   Mostly Cloudy
12:53 PM 44.1 °F 39.5 °F 16.0 °F 32% 30.34 in 10.0 mi NE 8.1 mph - N/A   Mostly Cloudy
1:53 PM 46.0 °F 41.9 °F 16.0 °F 30% 30.32 in 10.0 mi NNE 8.1 mph - N/A   Mostly Cloudy
2:53 PM 48.0 °F - 18.0 °F 30% 30.30 in 10.0 mi Calm Calm - N/A   Mostly Cloudy
3:53 PM 48.9 °F - 17.1 °F 28% 30.28 in 10.0 mi North 5.8 mph - N/A   Mostly Cloudy
4:53 PM 48.9 °F - 18.0 °F 29% 30.27 in 10.0 mi Variable 5.8 mph - N/A   Overcast
5:53 PM 48.0 °F - 17.1 °F 29% 30.27 in 10.0 mi ENE 3.5 mph - N/A   Overcast
6:53 PM 48.0 °F - 19.0 °F 32% 30.27 in 10.0 mi NE 8.1 mph - N/A   Overcast
7:53 PM 46.0 °F 43.1 °F 19.0 °F 34% 30.27 in 10.0 mi East 5.8 mph - N/A   Mostly Cloudy
8:53 PM 44.1 °F 40.1 °F 19.0 °F 37% 30.28 in 10.0 mi East 6.9 mph - N/A   Mostly Cloudy
9:53 PM 43.0 °F 38.8 °F 19.9 °F 40% 30.30 in 10.0 mi ESE 6.9 mph - N/A   Clear
10:53 PM 41.0 °F 36.4 °F 21.0 °F 45% 30.29 in 10.0 mi ESE 6.9 mph - N/A   Clear
11:53 PM 39.9 °F 35.8 °F 21.0 °F 47% 30.29 in 10.0 mi ESE 5.8 mph - N/A   Clear